AirNav   Phillips 66 Aviation Fuel
 
 1287 users online  

SN95 Roberts Air Field
Sylvia, Kansas, USA


FAA INFORMATION EFFECTIVE 14 SEPTEMBER 2017

Location

FAA Identifier: SN95
Lat/Long: 37-58-39.0510N / 098-24-15.2610W
37-58.650850N / 098-24.254350W
37.9775142 / -98.4042392
(estimated)
Elevation: 1765 ft. / 538 m (estimated)
Variation: 07E (1985)
From city: 2 miles NE of SYLVIA, KS
Time zone: UTC -5 (UTC -6 during Standard Time)
Zip code: 67581

Airport Operations

Airport use: Private use. Permission required prior to landing
Activation date: 09/1976
Control tower: no
ARTCC: KANSAS CITY CENTER
FSS: WICHITA FLIGHT SERVICE STATION
Attendance: IREG
Wind indicator: yes
Segmented circle: no
Lights: TO ACTVT LIRL RW 17/35 KEY 122.7 5 TIMES.
Beacon: white-green (lighted land airport)
FOR ROTG BCN KEY 122.7 5 TIMES.

Airport Communications

UNICOM: 122.8

Nearby radio navigation aids

VOR radial/distance  VOR name  Freq  Var
HUTr258/22.3HUTCHINSON VOR/DME116.8009E

 
NDB name  Hdg/Dist  Freq  Var  ID
PRATT040/22.235607EPTT .--. - -
LYONS195/23.738606ELYO .-.. -.-- ---

Airport Services

Parking: tiedowns
Airframe service: MINOR
Powerplant service: MINOR

Runway Information

Runway 17/35

Dimensions: 2250 x 90 ft. / 686 x 27 m
Surface: concrete/turf, in good condition
CENTER 32 FT. CONC FOR ENTIRE LGTH.
Runway edge lights: low intensity
RUNWAY 17  RUNWAY 35
Traffic pattern: leftleft
Markings: numbers only, in good conditionnumbers only, in good condition
Obstructions: 35 ft. trees, 1300 ft. from runway, 31:1 slope to clear
+4' FENCE AT 22 FT.
35 ft. trees, 1300 ft. from runway, 50 ft. left of centerline, 31:1 slope to clear
+19' ROAD AT 165 FT.

Runway 13/31

Dimensions: 3150 x 95 ft. / 960 x 29 m
Surface: turf, in fair condition
RUNWAY 13  RUNWAY 31
Traffic pattern: leftleft
Obstructions: 5 ft. fence, 40 ft. from runway, 8:1 slope to clear19 ft. road, 120 ft. from runway, 6:1 slope to clear

Airport Ownership and Management from official FAA records

Ownership: Privately-owned
Owner: L. J. ROBERTS, JR.
RT 1
SYLVIA, KS 67581
Phone 316-486-3445
Manager: L.S. ROBERTS JR.
RT 1
SYLVIA, KS 67581
Phone 316-486-3445

Airport Operational Statistics

Aircraft based on the field: 6
Single engine airplanes: 5
Multi engine airplanes: 1
    
Aircraft operations: avg 25/week *
77% local general aviation
23% transient general aviation
* for 12-month period ending 05 May 1992

Instrument Procedures

There are no published instrument procedures at SN95.

Some nearby airports with instrument procedures:

9K8 - Kingman Airport - Clyde Cessna Field (23 nm SE)
KPTT - Pratt Regional Airport (23 nm SW)
KLYO - Lyons-Rice County Municipal Airport (23 nm N)
KHUT - Hutchinson Regional Airport (26 nm E)
KGBD - Great Bend Municipal Airport (31 nm NW)
 
Loc | Ops | Rwys | IFR | FBO | Links
Com | Nav | Svcs | Stats | Notes

Kansas City Aviation Department
 
Area around SN95 (Roberts Air Field)
 
Road maps at: MapQuest Bing Google
 
Aerial photo
No photo
 
Sectional chart

 
Airport distance calculator
Flying to Roberts Air Field? Find the distance to fly.

From to SN95

Sunrise and sunset
Times for 21-Sep-2017
 Local
(UTC-5)
 Zulu
(UTC)
Morning civil twilight06:5511:55
Sunrise07:2212:22
Sunset19:3200:32
Evening civil twilight19:5800:58

Current date and time
Zulu (UTC)  21-Sep-2017 22:04:20
Local (UTC-5)  21-Sep-2017 17:04:20
 
METAR
KPTT 
23nm SW 
212155Z AUTO 18021G28KT 10SM CLR 37/13 A2974 RMK AO2 T03650132
KHUT 
26nm E 
212152Z 16025G34KT 10SM FEW070 37/20 A2973 RMK AO2 PK WND 18034/2146 SLP039 T03670200
KGBD 
31nm NW 
212156Z AUTO 17022G34KT 10SM FEW110 37/17 A2970 RMK AO2 PK WND 18034/2149 SLP037 T03670167
KP28 
42nm S 
212156Z AUTO 18021G31KT 36/18 A2972 RMK AO1 PK WND 18032/2123 SLP042 T03610178
8K2 
45nm S 
SuperAWOS
212142Z AUTO 10SM 36/21 A2979
TAF
KHUT 
26nm E 
211720Z 2118/2218 18020G28KT P6SM SCT050 FM220200 17016G24KT P6SM SCT250
KGBD 
31nm NW 
211720Z 2118/2218 18020G28KT P6SM FEW060 FM220400 17017G24KT P6SM SCT250 AMD LTD TO CLD VIS AND WIND
NOTAMs
Click for the latest NOTAMs
NOTAMs are issued by the DoD/FAA and will open in a separate window not controlled by AirNav.

 

 
 

Would you like to see your business listed on this page?

 If your business provides an interesting product or service to pilots, flight crews, aircraft, or users of the Roberts Air Field, you should consider listing it here.  To start the listing process, click on the button below
 
Add a business
 

Other Pages about Roberts Air Field

Update a link
 
Copyright © AirNav, LLC. All rights reserved. Privacy Policy  Contact